FW7144 Weather Reports


Display with metric or nautical units.
time (UTC)temp
F
wind
direction
speed
MPH
gust
MPH
rain 1hr
in
rain 24hr
in
rain mn
in
humidity
%
barometer
mb
20260509233231 81 100 4.0 13.0 0.00 0.00 0.00 20 1018.1
20260509232630 81 89 7.0 17.0 0.00 0.00 0.00 19 1018.0
20260509232006 80 76 6.0 16.0 0.00 0.00 0.00 21 1018.0
20260509231406 80 82 6.0 15.0 0.00 0.00 0.00 22 1017.9
20260509230805 81 68 3.0 9.0 0.00 0.00 0.00 21 1018.0
20260509230205 81 57 6.0 17.0 0.00 0.00 0.00 22 1018.0
20260509225606 80 79 10.0 18.0 0.00 0.00 0.00 22 1017.9
20260509225005 81 77 9.0 17.0 0.00 0.00 0.00 22 1017.9
20260509224406 81 92 9.0 20.0 0.00 0.00 0.00 23 1017.8
20260509223805 82 89 11.0 18.0 0.00 0.00 0.00 23 1017.8
20260509223206 82 96 8.0 19.0 0.00 0.00 0.00 23 1017.8
20260509222605 82 78 9.0 14.0 0.00 0.00 0.00 24 1017.8
20260509222043 83 62 5.0 16.0 0.00 0.00 0.00 24 1017.9
20260509221418 82 79 9.0 18.0 0.00 0.00 0.00 25 1017.9
20260509220831 80 116 9.0 15.0 0.00 0.00 0.00 25 1017.8
20260509220206 79 178 2.0 17.0 0.00 0.00 0.00 24 1017.9
20260509215606 81 123 6.0 13.0 0.00 0.00 0.00 24 1018.0
20260509215017 80 153 5.0 13.0 0.00 0.00 0.00 24 1018.1
20260509214405 80 132 7.0 16.0 0.00 0.00 0.00 23 1018.1
20260509213805 79 99 2.0 10.0 0.00 0.00 0.00 23 1018.2
20260509213218 79 115 7.0 14.0 0.00 0.00 0.00 22 1018.2
20260509212605 80 117 6.0 14.0 0.00 0.00 0.00 22 1018.2
20260509212006 79 150 4.0 11.0 0.00 0.00 0.00 22 1018.3
20260509211406 79 56 4.0 12.0 0.00 0.00 0.00 23 1018.4
20260509210805 79 104 7.0 16.0 0.00 0.00 0.00 24 1018.4
20260509210205 79 122 5.0 14.0 0.00 0.00 0.00 25 1018.4
20260509205606 79 105 0.0 15.0 0.00 0.00 0.00 27 1018.5
20260509205005 79 69 9.0 13.0 0.00 0.00 0.00 26 1018.5
20260509204418 80 93 3.0 13.0 0.00 0.00 0.00 27 1018.6
20260509203805 80 75 4.0 11.0 0.00 0.00 0.00 23 1018.7
20260509203205 80 332 0.0 8.0 0.00 0.00 0.00 24 1018.8
20260509202605 80 103 0.0 9.0 0.00 0.00 0.00 25 1018.8
20260509202018 80 48 0.0 16.0 0.00 0.00 0.00 25 1018.9
20260509201405 81 49 0.0 13.0 0.00 0.00 0.00 23 1018.9
20260509200806 80 109 3.0 16.0 0.00 0.00 0.00 24 1019.0
20260509200206 80 72 9.0 17.0 0.00 0.00 0.00 24 1019.1
20260509195605 80 90 3.0 11.0 0.00 0.00 0.00 24 1019.0
20260509195005 80 117 4.0 9.0 0.00 0.00 0.00 25 1019.0
20260509194405 80 81 4.0 10.0 0.00 0.00 0.00 24 1019.1
20260509193806 81 98 2.0 7.0 0.00 0.00 0.00 23 1019.1
20260509193231 80 349 0.0 14.0 0.00 0.00 0.00 24 1019.2
20260509192606 80 83 5.0 13.0 0.00 0.00 0.00 23 1019.1
20260509192006 80 83 3.0 14.0 0.00 0.00 0.00 24 1019.2
20260509191406 79 119 9.0 14.0 0.00 0.00 0.00 24 1019.2
20260509190805 79 25 0.0 11.0 0.00 0.00 0.00 25 1019.3
20260509190256 80 73 3.0 16.0 0.00 0.00 0.00 25 1019.3
20260509185605 79 68 4.0 7.0 0.00 0.00 0.00 24 1019.2
20260509185030 80 100 2.0 11.0 0.00 0.00 0.00 25 1019.4
20260509184430 80 83 5.0 12.0 0.00 0.00 0.00 24 1019.4
20260509183805 81 59 2.0 11.0 0.00 0.00 0.00 25 1019.5
20260509183205 81 311 0.0 14.0 0.00 0.00 0.00 25 1019.5
20260509182606 78 61 4.0 15.0 0.00 0.00 0.00 23 1019.7
20260509182006 79 135 4.0 16.0 0.00 0.00 0.00 22 1019.7
20260509181405 80 81 4.0 10.0 0.00 0.00 0.00 23 1019.6
20260509180806 79 16 2.0 10.0 0.00 0.00 0.00 23 1019.8
20260509180206 79 51 0.0 4.0 0.00 0.00 0.00 28 1019.7
20260509175605 78 89 0.0 9.0 0.00 0.00 0.00 30 1019.8
20260509175006 77 92 3.0 4.0 0.00 0.00 0.00 32 1019.9
20260509174405 77 109 0.0 6.0 0.00 0.00 0.00 35 1019.9
20260509173831 76 181 0.0 4.0 0.00 0.00 0.00 35 1020.0
20260509173205 75 48 0.0 8.0 0.00 0.00 0.00 39 1020.0
20260509172605 75 202 0.0 7.0 0.00 0.00 0.00 39 1020.1
20260509172030 77 317 0.0 9.0 0.00 0.00 0.00 40 1020.1
20260509171405 75 276 5.0 12.0 0.00 0.00 0.00 39 1020.2
20260509170806 78 320 2.0 8.0 0.00 0.00 0.00 41 1020.2
20260509170205 76 323 0.0 7.0 0.00 0.00 0.00 41 1020.3
20260509165606 76 293 0.0 6.0 0.00 0.00 0.00 43 1020.4
20260509165006 75 7 0.0 5.0 0.00 0.00 0.00 45 1020.4
20260509164406 75 304 0.0 5.0 0.00 0.00 0.00 41 1020.4
20260509163806 74 242 0.0 9.0 0.00 0.00 0.00 41 1020.5
20260509163206 74 96 2.0 6.0 0.00 0.00 0.00 41 1020.4
20260509162605 76 22 0.0 4.0 0.00 0.00 0.00 41 1020.5
20260509162005 75 298 0.0 4.0 0.00 0.00 0.00 44 1020.5
20260509161407 72 310 0.0 3.0 0.00 0.00 0.00 47 1020.5
20260509160805 72 80 0.0 5.0 0.00 0.00 0.00 48 1020.5
20260509160205 71 160 2.0 3.0 0.00 0.00 0.00 53 1020.6
20260509155630 72 98 0.0 6.0 0.00 0.00 0.00 50 1020.6
20260509155005 72 92 0.0 6.0 0.00 0.00 0.00 53 1020.7
20260509154405 72 342 3.0 7.0 0.00 0.00 0.00 55 1020.7
20260509153805 71 340 0.0 4.0 0.00 0.00 0.00 57 1020.7
20260509153206 70 145 0.0 3.0 0.00 0.00 0.00 55 1020.8
20260509152606 70 289 0.0 4.0 0.00 0.00 0.00 59 1020.8
20260509152005 70 56 2.0 3.0 0.00 0.00 0.00 60 1020.8
20260509151406 69 134 0.0 4.0 0.00 0.00 0.00 62 1020.8
20260509150806 69 23 0.0 4.0 0.00 0.00 0.00 63 1020.8
20260509150206 69 48 0.0 4.0 0.00 0.00 0.00 66 1020.9
20260509145605 68 70 2.0 3.0 0.00 0.00 0.00 67 1020.9
20260509145006 67 163 0.0 6.0 0.00 0.00 0.00 69 1020.9
20260509144405 68 110 2.0 6.0 0.00 0.00 0.00 69 1020.9
20260509143805 68 97 0.0 3.0 0.00 0.00 0.00 71 1020.9
20260509143206 67 251 0.0 3.0 0.00 0.00 0.00 71 1021.0
20260509142605 66 46 0.0 7.0 0.00 0.00 0.00 73 1020.9
20260509142018 66 87 2.0 4.0 0.00 0.00 0.00 74 1020.9
20260509141405 66 108 0.0 4.0 0.00 0.00 0.00 74 1020.9
20260509140806 65 184 2.0 3.0 0.00 0.00 0.00 75 1020.9
20260509140205 65 145 0.0 4.0 0.00 0.00 0.00 76 1020.9
20260509135606 64 95 0.0 3.0 0.00 0.00 0.00 76 1021.0
20260509135005 64 105 2.0 4.0 0.00 0.00 0.00 76 1020.9
20260509134405 64 80 0.0 4.0 0.00 0.00 0.00 75 1020.9
20260509133805 63 50 2.0 5.0 0.00 0.00 0.00 74 1020.9
20260509133205 62 91 2.0 6.0 0.00 0.00 0.00 74 1020.9
20260509132605 61 88 4.0 5.0 0.00 0.00 0.00 74 1020.9
20260509132005 60 87 3.0 4.0 0.00 0.00 0.00 75 1020.8
20260509131442 60 106 2.0 5.0 0.00 0.00 0.00 76 1020.7
20260509130831 60 84 2.0 4.0 0.00 0.00 0.00 76 1020.7
20260509130206 59 76 0.0 2.0 0.00 0.00 0.00 77 1020.6
20260509125631 59 0 0.0 2.0 0.00 0.00 0.00 78 1020.5
20260509125006 58 50 0.0 2.0 0.00 0.00 0.00 78 1020.4
20260509124406 58 72 0.0 3.0 0.00 0.00 0.00 78 1020.5
20260509123806 58 61 0.0 0.0 0.00 0.00 0.00 79 1020.5
20260509123218 58 117 0.0 3.0 0.00 0.00 0.00 79 1020.4
20260509122605 57 128 0.0 2.0 0.00 0.00 0.00 80 1020.3
20260509122030 57 176 0.0 0.0 0.00 0.00 0.00 79 1020.3
20260509121405 57 81 0.0 0.0 0.00 0.00 0.00 78 1020.2
20260509120805 57 71 0.0 0.0 0.00 0.00 0.00 78 1020.2
20260509120206 58 49 0.0 0.0 0.00 0.00 0.00 77 1020.1
20260509115630 58 49 0.0 2.0 0.00 0.00 0.00 77 1019.9
20260509115030 59 37 0.0 2.0 0.00 0.00 0.00 77 1019.8
20260509114405 59 71 0.0 2.0 0.00 0.00 0.00 77 1019.8
20260509113806 59 82 1.0 3.0 0.00 0.00 0.00 77 1019.7
20260509113205 59 63 0.0 2.0 0.00 0.00 0.00 78 1019.6
20260509112605 58 51 0.0 3.0 0.00 0.00 0.00 78 1019.5
20260509112006 58 38 0.0 2.0 0.00 0.00 0.00 79 1019.4
20260509111406 58 0 0.0 0.0 0.00 0.00 0.00 79 1019.4
20260509110818 58 290 0.0 2.0 0.00 0.00 0.00 78 1019.3
20260509110205 58 318 0.0 0.0 0.00 0.00 0.00 78 1019.2
20260509105617 58 144 0.0 0.0 0.00 0.00 0.00 78 1019.2
20260509105005 58 144 0.0 0.0 0.00 0.00 0.00 78 1019.3
20260509104405 58 144 0.0 0.0 0.00 0.00 0.00 78 1019.3
20260509103805 58 144 0.0 0.0 0.00 0.00 0.00 78 1019.2
20260509103205 58 144 0.0 0.0 0.00 0.00 0.00 77 1019.2
20260509102630 58 144 0.0 0.0 0.00 0.00 0.00 77 1019.1
20260509102005 58 111 0.0 2.0 0.00 0.00 0.00 76 1019.1
20260509101406 58 97 0.0 2.0 0.00 0.00 0.00 76 1019.0
20260509100805 57 57 0.0 3.0 0.00 0.00 0.00 77 1019.0
20260509100205 57 72 0.0 2.0 0.00 0.00 0.00 77 1019.0
20260509095607 57 73 0.0 3.0 0.00 0.00 0.00 76 1019.0
20260509095005 57 73 2.0 3.0 0.00 0.00 0.00 76 1018.9
20260509094406 56 86 0.0 2.0 0.00 0.00 0.00 76 1018.9
20260509093805 57 98 0.0 4.0 0.00 0.00 0.00 75 1018.9
20260509093205 57 92 2.0 4.0 0.00 0.00 0.00 75 1018.9
20260509092605 58 81 3.0 4.0 0.00 0.00 0.00 76 1018.8
20260509092006 58 37 2.0 7.0 0.00 0.00 0.00 77 1018.8
20260509091406 57 79 3.0 4.0 0.00 0.00 0.00 77 1018.8
20260509090805 56 25 1.0 3.0 0.00 0.00 0.00 78 1018.8
20260509090206 55 92 1.0 3.0 0.00 0.00 0.00 79 1018.7
20260509085605 55 115 2.0 3.0 0.00 0.00 0.00 80 1018.7
20260509085005 55 94 0.0 2.0 0.00 0.00 0.00 81 1018.8
20260509084405 54 175 0.0 2.0 0.00 0.00 0.00 80 1018.9
20260509083805 54 352 0.0 2.0 0.00 0.00 0.00 80 1018.8
20260509083205 54 19 0.0 3.0 0.00 0.00 0.00 80 1018.8
20260509082606 56 112 2.0 3.0 0.00 0.00 0.00 80 1018.8
20260509082005 56 123 2.0 3.0 0.00 0.00 0.00 79 1018.7
20260509081405 56 84 0.0 0.0 0.00 0.00 0.00 78 1018.7
20260509080830 57 7 0.0 0.0 0.00 0.00 0.00 77 1018.8
20260509080206 58 13 0.0 2.0 0.00 0.00 0.00 76 1018.8
20260509075606 59 18 0.0 2.0 0.00 0.00 0.00 75 1018.8
20260509075018 59 185 0.0 2.0 0.00 0.00 0.00 75 1018.7
20260509074405 59 176 0.0 3.0 0.00 0.00 0.00 76 1018.7
20260509073806 59 192 1.0 4.0 0.00 0.00 0.00 76 1018.8
20260509073205 58 181 0.0 3.0 0.00 0.00 0.00 77 1018.8
20260509072606 58 149 0.0 3.0 0.00 0.00 0.00 77 1018.7
20260509072005 58 242 0.0 2.0 0.00 0.00 0.00 76 1018.7
20260509071419 58 13 0.0 2.0 0.00 0.00 0.00 75 1019.0
20260509070805 59 3 0.0 3.0 0.00 0.00 0.00 73 1019.0
20260509070230 59 122 0.0 2.0 0.00 0.00 0.00 74 1018.9
20260509065606 59 244 0.0 3.0 0.00 0.00 0.00 76 1018.8
20260509065006 59 275 1.0 3.0 0.00 0.00 0.00 77 1018.8
20260509064406 58 283 0.0 2.0 0.00 0.00 0.00 78 1018.9
20260509063805 57 77 0.0 3.0 0.00 0.00 0.00 78 1019.0
20260509063230 57 320 0.0 2.0 0.00 0.00 0.00 75 1019.0
20260509062605 57 86 0.0 3.0 0.00 0.00 0.00 74 1018.9
20260509062005 58 85 2.0 0.0 0.00 0.00 0.00 74 1018.8
20260509061430 58 96 0.0 0.0 0.00 0.00 0.00 75 1018.7
20260509060805 59 96 0.0 3.0 0.00 0.00 0.00 74 1018.7
20260509060205 59 344 0.0 2.0 0.00 0.00 0.00 73 1018.9
20260509055606 59 297 0.0 6.0 0.00 0.00 0.00 71 1018.8
20260509055030 60 102 4.0 4.0 0.00 0.00 0.00 71 1019.0
20260509054405 61 90 0.0 2.0 0.00 0.00 0.00 70 1019.0
20260509053805 61 23 0.0 3.0 0.00 0.00 0.00 69 1018.9
20260509053205 62 282 0.0 7.0 0.00 0.00 0.00 69 1019.0
20260509052606 62 279 3.0 7.0 0.00 0.00 0.00 69 1019.1
20260509052006 62 282 3.0 4.0 0.00 0.00 0.00 70 1019.2
20260509051405 62 183 0.0 4.0 0.00 0.00 0.00 70 1019.2
20260509050830 61 110 3.0 4.0 0.00 0.00 0.00 70 1019.4
20260509050207 62 87 0.0 4.0 0.00 0.00 0.00 69 1019.4
20260509045605 62 69 2.0 4.0 0.00 0.00 0.00 69 1019.4
20260509045031 62 119 1.0 3.0 0.00 0.00 0.00 70 1019.2
20260509044406 62 123 2.0 5.0 0.00 0.00 0.00 69 1019.3
20260509043805 61 112 0.0 7.0 0.00 0.00 0.00 70 1019.3
20260509043206 60 86 4.0 3.0 0.00 0.00 0.00 71 1019.4
20260509042605 60 81 0.0 3.0 0.00 0.00 0.00 70 1019.3
20260509042006 60 60 0.0 2.0 0.00 0.00 0.00 69 1019.2
20260509041430 61 77 0.0 2.0 0.00 0.00 0.00 66 1019.3
20260509040805 62 47 0.0 3.0 0.00 0.00 0.00 66 1019.3
20260509040206 64 56 0.0 2.0 0.00 0.00 0.00 63 1019.2
20260509035606 64 184 0.0 3.0 0.00 0.00 0.00 65 1019.0
20260509035006 64 109 0.0 6.0 0.00 0.00 0.00 65 1019.1
20260509034406 64 114 2.0 6.0 0.00 0.00 0.00 64 1019.1
20260509033805 64 100 0.0 3.0 0.00 0.00 0.00 64 1019.0
20260509033231 65 133 0.0 6.0 0.00 0.00 0.00 63 1019.0
20260509032631 65 126 2.0 4.0 0.00 0.00 0.00 62 1018.9
20260509032006 65 118 0.0 6.0 0.00 0.00 0.00 60 1018.8
20260509031405 67 29 2.0 3.0 0.00 0.00 0.00 59 1018.9
20260509030805 67 165 0.0 0.0 0.00 0.00 0.00 59 1018.6
20260509030206 67 152 0.0 3.0 0.00 0.00 0.00 58 1018.6
20260509025606 67 44 0.0 2.0 0.00 0.00 0.00 57 1018.6
20260509025005 69 188 0.0 5.0 0.00 0.00 0.00 56 1018.5
20260509024405 69 118 3.0 7.0 0.00 0.00 0.00 55 1018.5
20260509023805 69 134 0.0 3.0 0.00 0.00 0.00 55 1018.4
20260509023206 69 157 0.0 3.0 0.00 0.00 0.00 54 1018.4
20260509022031 69 164 0.0 4.0 0.00 0.00 0.00 54 1018.3
20260509021405 69 127 0.0 6.0 0.00 0.00 0.00 54 1018.2
20260509020805 70 125 0.0 3.0 0.00 0.00 0.00 53 1018.2
20260509020230 70 124 0.0 4.0 0.00 0.00 0.00 53 1018.2
20260509015605 70 167 0.0 3.0 0.00 0.00 0.00 53 1018.1
20260509015005 70 119 2.0 3.0 0.00 0.00 0.00 54 1018.0
20260509014405 70 75 0.0 2.0 0.00 0.00 0.00 53 1017.9
20260509013806 71 100 0.0 3.0 0.00 0.00 0.00 52 1017.8
20260509013230 70 167 0.0 3.0 0.00 0.00 0.00 52 1017.6
20260509012606 71 241 0.0 3.0 0.00 0.00 0.00 51 1017.5
20260509011431 72 184 0.0 6.0 0.00 0.00 0.00 48 1017.4
20260509010843 73 143 2.0 6.0 0.00 0.00 0.00 46 1017.3
20260509010205 73 333 0.0 4.0 0.00 0.00 0.00 42 1017.2
20260509005630 74 138 2.0 8.0 0.00 0.00 0.00 40 1017.1
20260509005005 75 110 3.0 7.0 0.00 0.00 0.00 38 1017.1
20260509004430 75 114 4.0 7.0 0.00 0.00 0.00 37 1017.0
20260509003805 76 95 4.0 10.0 0.00 0.00 0.00 36 1017.0
20260509003205 76 92 5.0 10.0 0.00 0.00 0.00 36 1016.9
20260509002605 77 112 4.0 12.0 0.00 0.00 0.00 36 1016.9
20260509002006 77 68 6.0 9.0 0.00 0.00 0.00 35 1017.0
20260509001406 77 97 6.0 11.0 0.00 0.00 0.00 37 1017.1
20260509000805 77 107 4.0 11.0 0.00 0.00 0.00 38 1017.0
20260509000206 77 123 6.0 16.0 0.00 0.00 0.00 38 1016.9
20260508235606 77 124 6.0 16.0 0.00 0.00 0.00 40 1016.9
20260508235006 77 131 8.0 16.0 0.00 0.00 0.00 40 1016.7
20260508234405 77 128 5.0 13.0 0.00 0.00 0.00 40 1016.7
20260508233805 79 126 5.0 14.0 0.00 0.00 0.00 38 1016.7